Regional Weather Roundup
Issued by NWS

Home | Current Version | Previous Version | Graphics & Text | Print | Product List | Glossary On
Versions: 1 2 3 4 5 6 7 8 9 10 11 12 13 14 15 16 17 18 19 20 21 22 23 24 25 26 27 28 29 30 31 32 33 34 35 36 37 38 39 40 41 42 43 44 45 46 47 48 49 50
000
ASUS43 KLMK 190110
RWRKY
KENTUCKY REGIONAL WEATHER ROUNDUP
NATIONAL WEATHER SERVICE LOUISVILLE KY
800 PM EST THU DEC 18 2014

NOTE "FAIR" INDICATES FEW OR NO CLOUDS BELOW 12,000 FEET
WITH NO SIGNIFICANT WEATHER AND/OR OBSTRUCTIONS TO VISIBILITY.

KYZ001>023-026-027-061>063-070>075-190200-
WESTERN AND SOUTH CENTRAL KENTUCKY

CITY           SKY/WX    TMP DP  RH WIND       PRES   REMARKS
PADUCAH        CLOUDY    36  31  82 NE6       30.25R WCI  31
HENDERSON      CLOUDY    34  25  69 CALM      30.25S
OWENSBORO      CLOUDY    34  27  76 VRB3      30.26R
HOPKINSVILLE   CLOUDY    34  30  85 N3        30.24R
BOWLING GREEN  CLOUDY    35  27  72 CALM      30.25R
GLASGOW        CLOUDY    33  28  79 E3        30.22S
$$

KYZ024-025-028>034-038-045-046-053-190200-
NORTH CENTRAL KENTUCKY

CITY           SKY/WX    TMP DP  RH WIND       PRES   REMARKS
LOUISVILLE/SDF CLOUDY    33  24  69 N5        30.25R WCI  29
LOUISVILLE/LOU CLOUDY    32  23  69 N5        30.25R WCI  27
FORT KNOX      CLOUDY    32  25  76 N1        30.22R
$$

KYZ035>037-039>044-047>052-055>060-089>105-190200-
NORTHEAST KENTUCKY

CITY           SKY/WX    TMP DP  RH WIND       PRES   REMARKS
LEXINGTON      CLOUDY    30  24  78 N5        30.22R WCI  25
COVINGTON      CLOUDY    28  20  71 W3        30.22S
FRANKFORT      CLOUDY    31  23  72 CALM      30.22R
$$

KYZ054-064>069-076>088-106>120-190200-
SOUTHEAST KENTUCKY

CITY           SKY/WX    TMP DP  RH WIND       PRES   REMARKS
JACKSON        CLOUDY    32  24  72 CALM      30.17S
LONDON         CLOUDY    35  26  69 CALM      30.17F
SOMERSET       CLOUDY    32  27  80 CALM      30.21S
MIDDLESBORO    CLOUDY    38  29  71 CALM      30.18R
MONTICELLO     MOCLDY    35  29  79 CALM      30.23R
$$




USA.gov is the U.S. government's official web portal to all federal, state and local government web resources and services.